Lafayette, IN

9:13 PM EST on February 25, 2018 (GMT -0500)
Purdue Univ

Weather History for KLAF - January, 2013

Change the Weather History Date:

Wednesday, January 23, 2013

  Actual Average Record
Temperature  
Mean Temperature 16 °F 26 °F  
Max Temperature 22 °F 34 °F 60 °F (1967)
Min Temperature 9 °F 19 °F -10 °F (1987)
Degree Days  
Heating Degree Days 49 39  
Month to date heating degree days 874 893  
Since 1 July heating degree days 3069 3068  
Cooling Degree Days 0 0  
Month to date cooling degree days 0 0  
Year to date cooling degree days 0 0  
Moisture  
Dew Point 4 °F    
Average Humidity 59    
Maximum Humidity 73    
Minimum Humidity 45    
Precipitation  
Precipitation T in 0.06 in 0.56 in (1953)
Month to date precipitation 2.06 1.42  
Year to date precipitation 2.06 1.42  
Sea Level Pressure  
Sea Level Pressure 30.28 in    
Wind  
Wind Speed 4 mph (West)    
Max Wind Speed 21 mph    
Max Gust Speed 28 mph    
Visibility 10 miles    
Events Snow    
T = Trace of Precipitation, MM = Missing Value Source: NWS Daily Summary

Daily Weather History Graph

Daily Weather History Graph

Search for Another Location

Airport or City:

Trip Planner

Search our weather history database for the weather conditions in past years. The results will help you decide how hot, cold, wet, or windy it might be!

Date:

Astronomy

Jan. 23, 2013 Rise Set
Actual Time 8:04 AM EST 5:55 PM EST
Civil Twilight 7:34 AM EST 6:24 PM EST
Nautical Twilight 7:01 AM EST 6:58 PM EST
Astronomical Twilight 6:29 AM EST 7:30 PM EST
Moon 3:05 PM EST (1/23) 5:15 AM EST (1/23)
Length of Visible Light 10h 50m
Length of Day
9h 51m
Waxing Gibbous, 89% of the Moon is Illuminated
Jan 23
Waxing Gibbous
Jan 26
Full
Feb 3
Last Quarter
Feb 10
New
Feb 17
First Quarter

Hourly Weather History & Observations

Time (EST) Temp. Windchill Dew Point Humidity Pressure Visibility Wind Dir Wind Speed Gust Speed Precip Events Conditions
12:54 AM 12.0 °F 2.7 °F -0.9 °F 56% 30.39 in 10.0 mi West 5.8 mph - N/A   Overcast
1:54 AM 12.0 °F - -0.9 °F 56% 30.39 in 10.0 mi Calm Calm - N/A   Overcast
2:54 AM 10.9 °F - -0.9 °F 59% 30.38 in 10.0 mi Calm Calm - N/A   Scattered Clouds
3:54 AM 9.0 °F - 1.0 °F 70% 30.37 in 10.0 mi Calm Calm - N/A   Mostly Cloudy
4:54 AM 10.9 °F - 1.9 °F 67% 30.36 in 10.0 mi Calm Calm - N/A   Overcast
5:54 AM 12.0 °F - 1.9 °F 64% 30.36 in 10.0 mi Calm Calm - N/A   Overcast
6:54 AM 12.9 °F 6.9 °F 1.9 °F 62% 30.35 in 10.0 mi WSW 3.5 mph - N/A   Overcast
7:54 AM 12.9 °F - 1.0 °F 59% 30.34 in 10.0 mi Calm Calm - N/A   Overcast
8:54 AM 14.0 °F 5.1 °F 1.0 °F 56% 30.34 in 10.0 mi SW 5.8 mph - N/A   Overcast
9:54 AM 14.0 °F 5.1 °F 1.0 °F 56% 30.34 in 10.0 mi SW 5.8 mph - N/A   Overcast
10:54 AM 16.0 °F 6.3 °F 1.9 °F 54% 30.33 in 10.0 mi WSW 6.9 mph - N/A   Overcast
11:54 AM 18.0 °F 7.7 °F 1.9 °F 50% 30.31 in 9.0 mi WSW 8.1 mph - 0.00 in Snow Light Snow
12:54 PM 19.0 °F 7.5 °F -0.0 °F 43% 30.27 in 10.0 mi SW 10.4 mph 17.3 mph 0.00 in   Overcast
1:54 PM 19.9 °F 9.3 °F 1.9 °F 46% 30.22 in 10.0 mi West 9.2 mph - N/A   Overcast
2:54 PM 19.9 °F 13.4 °F 3.0 °F 48% 30.20 in 10.0 mi West 4.6 mph - N/A   Overcast
4:54 PM 21.9 °F - 7.0 °F 53% 30.17 in 10.0 mi Calm Calm - N/A   Overcast
5:54 PM 21.9 °F - 8.1 °F 55% 30.15 in 10.0 mi Calm Calm - N/A   Overcast
6:54 PM 21.9 °F - 9.0 °F 58% 30.15 in 10.0 mi Calm Calm - N/A   Overcast
7:54 PM 21.9 °F - 9.0 °F 58% 30.15 in 10.0 mi Calm Calm - N/A   Overcast
8:54 PM 21.0 °F - 10.0 °F 63% 30.15 in 10.0 mi Calm Calm - N/A   Overcast
9:54 PM 21.0 °F 13.4 °F 10.9 °F 65% 30.18 in 10.0 mi NW 5.8 mph - N/A   Overcast
10:54 PM 19.9 °F 8.6 °F 9.0 °F 62% 30.20 in 10.0 mi NNW 10.4 mph - N/A   Mostly Cloudy
11:54 PM 19.9 °F 5.2 °F 10.9 °F 68% 30.24 in 9.0 mi North 17.3 mph 27.6 mph 0.00 in Snow Light Snow